Flag for Germany

Past Weather in Rostock, Mecklenburg-Western Pomerania, Germany — Yesterday and Last 2 Weeks

Now
61 °F

Scattered clouds.


Feels Like: 61 °F
Forecast: 64 / 53 °F
Wind: 13 mph from West

Location: Laage

Current Time: Jul 6, 2020 at 3:47:01 pm

Latest Report: Jul 6, 2020 at 2:20 pm


Visibility: N/A

Pressure: 29.74 "Hg

Humidity: 63%

Dew Point: 48 °F

Location of RostockLocation

Past Weather in Rostock — Graph

°F

Rostock Temperature Yesterday

Maximum temperature yesterday: 72 °F (at 4:20 pm)
Minimum temperature yesterday: 61 °F (at 10:20 pm)
Average temperature yesterday: 66 °F

High & Low Weather Summary for the Past Weeks

 TemperatureHumidityPressure
High84 °F (Jun 27, 4:20 pm)100% (Jun 29, 5:20 am)30.30 "Hg (Jun 29, 5:20 am)
Low50 °F (Jun 23, 5:20 am)33% (Jun 29, 3:46 pm)29.62 "Hg (Jul 1, 8:20 pm)
Average65 °F74%29.91 "Hg
* Reported Jun 21 2:20 pm — Jul 6 2:20 pm, Rostock. Weather by CustomWeather, © 2020

Note: Actual official high and low records may vary slightly from our data, if they occured in-between our weather recording intervals... More about our weather records

Rostock Weather History for the Previous 24 Hours

Scroll right to see more
 ConditionsComfort  
Time TempWeatherWind HumidityBarometerVisibility
2:20 pm
Mon, Jul 6
61 °FScattered clouds.13 mph63%29.74 "HgN/A
2:06 pm59 °FSprinkles. Scattered clouds.13 mph77%29.74 "HgN/A
1:40 pm59 °FSprinkles. Partly sunny.16 mph72%29.74 "HgN/A
1:20 pm59 °FScattered clouds.15 mph72%29.74 "HgN/A
12:33 pm55 °FBroken clouds.14 mph88%29.74 "Hg5 mi
12:20 pm54 °FSprinkles. Partly sunny.18 mph82%29.74 "Hg4 mi
11:59 am63 °FRain showers. Partly sunny.18 mph59%29.71 "Hg3 mi
11:49 am63 °FScattered showers. Partly sunny.18 mph59%29.71 "HgN/A
11:20 am63 °FScattered showers. Partly sunny.15 mph64%29.71 "HgN/A
10:20 am61 °FPartly sunny.16 mph59%29.68 "HgN/A
9:20 am61 °FPartly sunny.15 mph63%29.68 "HgN/A
8:20 am59 °FScattered clouds.13 mph72%29.68 "HgN/A
7:26 am57 °FPartly sunny.8 mph77%29.68 "HgN/A
6:20 am57 °FPartly sunny.9 mph77%29.68 "HgN/A
5:20 am57 °FPartly sunny.8 mph77%29.68 "HgN/A
4:20 am57 °FPassing clouds.7 mph77%29.68 "HgN/A
3:20 am57 °FPassing clouds.7 mph77%29.68 "HgN/A
2:20 am59 °FPassing clouds.8 mph72%29.71 "HgN/A
1:20 am57 °FPassing clouds.5 mph72%29.71 "HgN/A
12:20 am59 °FPassing clouds.10 mph72%29.71 "HgN/A
11:20 pm
Sun, Jul 5
61 °FPassing clouds.9 mph72%29.71 "HgN/A
10:20 pm61 °FPassing clouds.9 mph83%29.71 "HgN/A
9:20 pm64 °FScattered clouds.9 mph73%29.71 "HgN/A
8:20 pm66 °FPassing clouds.13 mph68%29.68 "HgN/A
7:20 pm70 °FPassing clouds.14 mph64%29.68 "HgN/A
6:20 pm72 °FScattered clouds.13 mph65%29.68 "HgN/A
5:20 pm72 °FScattered clouds.18 mph65%29.68 "HgN/A
4:20 pm72 °FScattered clouds.21 mph69%29.68 "HgN/A
3:20 pm68 °FBroken clouds.16 mph83%29.68 "HgN/A
Weather by CustomWeather, © 2020

See weather overview